,,,PA_Meas_PMT16A,,PR_Meas_QMR101_102,,RH_Meas_QMH101,,SR_Meas_QMS101,,TA_Meas_QMH101,,GenWind,,GenWind,
date,time,status,PA,status,PR,status,RH,status,SR,status,TA,status,DirAvg,status,SpdAvg,
2009-04-15, 00:00:04,VALID,1003.11,VALID,0,VALID,93.0647,VALID,0,VALID,24.3052,VALID,23,VALID,0.296875,
2009-04-15, 00:01:04,VALID,1003.12,VALID,0,VALID,93.1029,VALID,0,VALID,24.307,VALID,23,VALID,0.207813,
2009-04-15, 00:02:04,VALID,1003.14,VALID,0,VALID,93.1257,VALID,0,VALID,24.2662,VALID,23,VALID,0.348828,
2009-04-15, 00:03:04,VALID,1003.11,VALID,0,VALID,93.1868,VALID,0,VALID,24.2468,VALID,23,VALID,0.184766,
2009-04-15, 00:04:04,VALID,1003.12,VALID,0,VALID,93.2097,VALID,0,VALID,24.2468,VALID,23,VALID,0.370703,
2009-04-15, 00:05:04,VALID,1003.09,VALID,0,VALID,93.2859,VALID,0,VALID,24.2273,VALID,23,VALID,0.114844,
2009-04-15, 00:06:04,VALID,1003.08,VALID,0,VALID,93.3546,VALID,0.100563,VALID,24.2078,VALID,23,VALID,0,
2009-04-15, 00:07:04,VALID,1003.06,VALID,0,VALID,93.5148,VALID,0.100563,VALID,24.2273,VALID,17,VALID,0.273438,
2009-04-15, 00:08:04,VALID,1003.02,VALID,0,VALID,93.4843,VALID,0.100563,VALID,24.2273,VALID,17,VALID,0.157031,
2009-04-15, 00:09:04,VALID,1002.99,VALID,0,VALID,93.5224,VALID,0,VALID,24.2291,VALID,17,VALID,0.307813,
2009-04-15, 00:10:04,VALID,1002.95,VALID,0,VALID,93.5606,VALID,0,VALID,24.2486,VALID,17,VALID,0.765234,
2009-04-15, 00:11:04,VALID,1002.94,VALID,0,VALID,93.6369,VALID,0.100563,VALID,24.2078,VALID,346,VALID,0.817578,
2009-04-15, 00:12:04,VALID,1002.9,VALID,0,VALID,93.6598,VALID,0,VALID,24.2486,VALID,342,VALID,0.676172,
2009-04-15, 00:13:04,VALID,1002.9,VALID,0,VALID,93.6521,VALID,0.100563,VALID,24.2681,VALID,354,VALID,0.522656,
2009-04-15, 00:14:04,VALID,1002.89,VALID,0,VALID,93.5911,VALID,0.100563,VALID,24.2468,VALID,354,VALID,0.257813,
2009-04-15, 00:15:04,VALID,1002.85,VALID,0,VALID,93.4996,VALID,0,VALID,24.2681,VALID,354,VALID,0.19375,
2009-04-15, 00:16:04,VALID,1002.85,VALID,0,VALID,93.4843,VALID,0,VALID,24.2078,VALID,354,VALID,0.195703,
2009-04-15, 00:17:04,VALID,1002.83,VALID,0,VALID,93.5148,VALID,0,VALID,24.2078,VALID,355,VALID,0.421875,
2009-04-15, 00:18:04,VALID,1002.78,VALID,0,VALID,93.5682,VALID,0,VALID,24.2097,VALID,355,VALID,0.236719,
2009-04-15, 00:19:04,VALID,1002.79,VALID,0,VALID,93.5682,VALID,0,VALID,24.1902,VALID,355,VALID,0.153125,
2009-04-15, 00:20:04,VALID,1002.73,VALID,0,VALID,93.6445,VALID,0,VALID,24.1902,VALID,355,VALID,0.288281,
2009-04-15, 00:21:04,VALID,1002.74,VALID,0,VALID,93.7208,VALID,0,VALID,24.1689,VALID,355,VALID,0.127344,
2009-04-15, 00:22:04,VALID,1002.71,VALID,0,VALID,93.7437,VALID,0,VALID,24.1689,VALID,355,VALID,0.169531,
2009-04-15, 00:23:04,VALID,1002.7,VALID,0,VALID,93.7513,VALID,0.100563,VALID,24.1494,VALID,355,VALID,0.219531,
2009-04-15, 00:24:04,VALID,1002.68,VALID,0,VALID,93.7742,VALID,0.100563,VALID,24.1689,VALID,355,VALID,0.235938,
2009-04-15, 00:25:04,VALID,1002.66,VALID,0,VALID,93.7971,VALID,0,VALID,24.1902,VALID,355,VALID,0,
2009-04-15, 00:26:04,VALID,1002.61,VALID,0,VALID,93.8047,VALID,0,VALID,24.1513,VALID,355,VALID,0.389062,
2009-04-15, 00:27:04,VALID,1002.57,VALID,0,VALID,93.8429,VALID,0,VALID,24.1494,VALID,355,VALID,0.396875,
2009-04-15, 00:28:04,VALID,1002.55,VALID,0,VALID,93.8581,VALID,0.100563,VALID,24.1689,VALID,355,VALID,0.336719,
2009-04-15, 00:29:04,VALID,1002.54,VALID,0,VALID,93.8581,VALID,0.100563,VALID,24.1689,VALID,355,VALID,0.389844,
2009-04-15, 00:30:04,VALID,1002.52,VALID,0,VALID,93.8734,VALID,0,VALID,24.1494,VALID,355,VALID,0.357422,
2009-04-15, 00:31:04,VALID,1002.53,VALID,0,VALID,93.8963,VALID,0,VALID,24.1494,VALID,355,VALID,0.135937,
2009-04-15, 00:32:04,VALID,1002.51,VALID,0,VALID,93.8657,VALID,0,VALID,24.1105,VALID,355,VALID,0.000390625,
2009-04-15, 00:33:04,VALID,1002.52,VALID,0,VALID,93.9115,VALID,0,VALID,24.1105,VALID,355,VALID,0.206641,
2009-04-15, 00:34:04,VALID,1002.51,VALID,0,VALID,93.9191,VALID,0,VALID,24.1318,VALID,355,VALID,0.257422,
2009-04-15, 00:35:04,VALID,1002.5,VALID,0,VALID,93.9573,VALID,0,VALID,24.1105,VALID,355,VALID,0.361328,
2009-04-15, 00:36:04,VALID,1002.48,VALID,0,VALID,93.9725,VALID,0,VALID,24.091,VALID,354,VALID,0.514844,
2009-04-15, 00:37:04,VALID,1002.48,VALID,0,VALID,93.9878,VALID,0,VALID,24.1123,VALID,354,VALID,0.463281,
2009-04-15, 00:38:04,VALID,1002.44,VALID,0,VALID,94.0259,VALID,0,VALID,24.1123,VALID,354,VALID,0.557813,
2009-04-15, 00:39:04,VALID,1002.44,VALID,0,VALID,94.0412,VALID,0,VALID,24.1105,VALID,354,VALID,0.573047,
2009-04-15, 00:40:04,VALID,1002.4,VALID,0,VALID,94.0717,VALID,0,VALID,24.1318,VALID,343,VALID,0.696094,
2009-04-15, 00:41:04,VALID,1002.41,VALID,0,VALID,94.1099,VALID,0,VALID,24.1318,VALID,344,VALID,0.516016,
2009-04-15, 00:42:04,VALID,1002.4,VALID,0,VALID,94.1251,VALID,0,VALID,24.1105,VALID,345,VALID,0.460547,
2009-04-15, 00:43:04,VALID,1002.41,VALID,0,VALID,94.1251,VALID,0,VALID,24.1105,VALID,345,VALID,0.513672,
2009-04-15, 00:44:04,VALID,1002.37,VALID,0,VALID,94.1175,VALID,0,VALID,24.1318,VALID,345,VALID,0.201562,
2009-04-15, 00:45:04,VALID,1002.39,VALID,0,VALID,94.1328,VALID,0,VALID,24.0892,VALID,345,VALID,0,
2009-04-15, 00:46:04,VALID,1002.37,VALID,0,VALID,94.1251,VALID,0,VALID,24.091,VALID,345,VALID,0,
2009-04-15, 00:47:04,VALID,1002.36,VALID,0,VALID,94.1404,VALID,0,VALID,24.1123,VALID,345,VALID,0.0652344,
2009-04-15, 00:48:04,VALID,1002.36,VALID,0,VALID,94.1785,VALID,0,VALID,24.091,VALID,345,VALID,0.18125,
2009-04-15, 00:49:04,VALID,1002.34,VALID,0,VALID,94.1785,VALID,0,VALID,24.091,VALID,345,VALID,0.194531,
2009-04-15, 00:50:04,VALID,1002.34,VALID,0,VALID,94.1862,VALID,0,VALID,24.0929,VALID,345,VALID,0.0414063,
2009-04-15, 00:51:04,VALID,1002.33,VALID,0,VALID,94.2014,VALID,0,VALID,24.0734,VALID,345,VALID,0.325781,
2009-04-15, 00:52:04,VALID,1002.31,VALID,0,VALID,94.209,VALID,0,VALID,24.0929,VALID,345,VALID,0.0492188,
2009-04-15, 00:53:04,VALID,1002.3,VALID,0,VALID,94.2319,VALID,0,VALID,24.0716,VALID,345,VALID,0.247266,
2009-04-15, 00:54:04,VALID,1002.29,VALID,0,VALID,94.2472,VALID,0,VALID,24.0929,VALID,345,VALID,0.357422,
2009-04-15, 00:55:04,VALID,1002.3,VALID,0,VALID,94.2624,VALID,0,VALID,24.0521,VALID,345,VALID,0.283594,
2009-04-15, 00:56:04,VALID,1002.29,VALID,0,VALID,94.2701,VALID,0,VALID,24.0734,VALID,345,VALID,0.233203,
2009-04-15, 00:57:04,VALID,1002.25,VALID,0,VALID,94.2624,VALID,0,VALID,24.0752,VALID,345,VALID,0.226953,
2009-04-15, 00:58:04,VALID,1002.25,VALID,0,VALID,94.2777,VALID,0,VALID,24.0539,VALID,345,VALID,0.332812,
2009-04-15, 00:59:04,VALID,1002.24,VALID,0,VALID,94.293,VALID,0,VALID,24.0557,VALID,345,VALID,0.314063,
2009-04-15, 01:00:04,VALID,1002.24,VALID,0,VALID,94.2777,VALID,0,VALID,24.0345,VALID,345,VALID,0.425391,
2009-04-15, 01:01:04,VALID,1002.22,VALID,0,VALID,94.3006,VALID,0,VALID,24.0363,VALID,345,VALID,0.275781,
2009-04-15, 01:02:04,VALID,1002.22,VALID,0,VALID,94.3006,VALID,0,VALID,24.0168,VALID,345,VALID,0.210156,
2009-04-15, 01:03:04,VALID,1002.25,VALID,0,VALID,94.3082,VALID,0,VALID,23.9761,VALID,345,VALID,0.159375,
2009-04-15, 01:04:04,VALID,1002.23,VALID,0,VALID,94.3082,VALID,0,VALID,23.9761,VALID,345,VALID,0.226563,
2009-04-15, 01:05:04,VALID,1002.3,VALID,0,VALID,94.3464,VALID,0,VALID,23.9779,VALID,345,VALID,0.207422,
2009-04-15, 01:06:04,VALID,1002.29,VALID,0,VALID,94.3692,VALID,0,VALID,23.9779,VALID,345,VALID,0.2125,
2009-04-15, 01:07:04,VALID,1002.3,VALID,0,VALID,94.354,VALID,0,VALID,23.9779,VALID,345,VALID,0.439844,
2009-04-15, 01:08:04,VALID,1002.32,VALID,0,VALID,94.3769,VALID,0,VALID,23.9779,VALID,345,VALID,0.259766,
2009-04-15, 01:09:04,VALID,1002.3,VALID,0,VALID,94.3998,VALID,0,VALID,23.9371,VALID,345,VALID,0.459766,
2009-04-15, 01:10:04,VALID,1002.26,VALID,0,VALID,94.3845,VALID,0,VALID,23.9371,VALID,345,VALID,0.570313,
2009-04-15, 01:11:04,VALID,1002.29,VALID,0,VALID,94.4074,VALID,0,VALID,23.9371,VALID,345,VALID,0.46875,
2009-04-15, 01:12:04,VALID,1002.27,VALID,0,VALID,94.4379,VALID,0,VALID,23.9371,VALID,345,VALID,0.369531,
2009-04-15, 01:13:04,VALID,1002.3,VALID,0,VALID,94.4303,VALID,0,VALID,23.9177,VALID,345,VALID,0.383594,
2009-04-15, 01:14:04,VALID,1002.3,VALID,0,VALID,94.4532,VALID,0,VALID,23.9177,VALID,345,VALID,0.454688,
2009-04-15, 01:15:04,VALID,1002.31,VALID,0,VALID,94.4761,VALID,0,VALID,23.9177,VALID,345,VALID,0.344141,
2009-04-15, 01:16:04,VALID,1002.31,VALID,0,VALID,94.4989,VALID,0,VALID,23.8982,VALID,345,VALID,0.302344,
2009-04-15, 01:17:04,VALID,1002.34,VALID,0,VALID,94.4989,VALID,0,VALID,23.9389,VALID,345,VALID,0.30625,
2009-04-15, 01:18:04,VALID,1002.36,VALID,0,VALID,94.5447,VALID,0,VALID,23.9177,VALID,345,VALID,0.222266,
2009-04-15, 01:19:04,VALID,1002.3,VALID,0,VALID,94.5676,VALID,0,VALID,23.9371,VALID,345,VALID,0.441797,
2009-04-15, 01:20:04,VALID,1002.3,VALID,0,VALID,94.621,VALID,0,VALID,23.9566,VALID,345,VALID,0.474219,
2009-04-15, 01:21:04,VALID,1002.32,VALID,0,VALID,94.6057,VALID,0,VALID,23.9566,VALID,345,VALID,0.0308594,
2009-04-15, 01:22:04,VALID,1002.28,VALID,0,VALID,94.5981,VALID,0,VALID,23.9973,VALID,345,VALID,0.109375,
2009-04-15, 01:23:04,VALID,1002.32,VALID,0,VALID,94.621,VALID,0,VALID,23.9353,VALID,345,VALID,0.000390625,
2009-04-15, 01:24:04,VALID,1002.32,VALID,0,VALID,94.6286,VALID,0,VALID,23.9973,VALID,345,VALID,0.407422,
2009-04-15, 01:25:04,VALID,1002.31,VALID,0,VALID,94.6057,VALID,0,VALID,23.9955,VALID,345,VALID,0.446875,
2009-04-15, 01:26:04,VALID,1002.31,VALID,0,VALID,94.5752,VALID,0,VALID,23.9955,VALID,345,VALID,0.625391,
2009-04-15, 01:27:04,VALID,1002.33,VALID,0,VALID,94.6134,VALID,0.100563,VALID,23.9937,VALID,345,VALID,0.464844,
2009-04-15, 01:28:04,VALID,1002.35,VALID,0,VALID,94.621,VALID,0.100563,VALID,24.015,VALID,345,VALID,0.558594,
2009-04-15, 01:29:04,VALID,1002.35,VALID,0,VALID,94.6286,VALID,0,VALID,23.9937,VALID,345,VALID,0.385156,
2009-04-15, 01:30:04,VALID,1002.36,VALID,0,VALID,94.5981,VALID,0,VALID,23.9955,VALID,345,VALID,0.125781,
2009-04-15, 01:31:04,VALID,1002.36,VALID,0,VALID,94.5981,VALID,0,VALID,23.9955,VALID,345,VALID,0.355078,
2009-04-15, 01:32:04,VALID,1002.35,VALID,0,VALID,94.5905,VALID,0,VALID,23.9955,VALID,345,VALID,0.305859,
2009-04-15, 01:33:04,VALID,1002.35,VALID,0,VALID,94.6134,VALID,0,VALID,23.9548,VALID,345,VALID,0.45625,
2009-04-15, 01:34:04,VALID,1002.33,VALID,0,VALID,94.621,VALID,0,VALID,23.9548,VALID,345,VALID,0.306641,
2009-04-15, 01:35:04,VALID,1002.31,VALID,0,VALID,94.6286,VALID,0,VALID,23.9548,VALID,345,VALID,0.403125,
2009-04-15, 01:36:04,VALID,1002.29,VALID,0,VALID,94.6515,VALID,0,VALID,23.9761,VALID,345,VALID,0.422656,
2009-04-15, 01:37:04,VALID,1002.3,VALID,0,VALID,94.6591,VALID,0,VALID,23.9955,VALID,345,VALID,0.348828,
2009-04-15, 01:38:04,VALID,1002.29,VALID,0,VALID,94.6591,VALID,0,VALID,23.9742,VALID,345,VALID,0.0828125,
2009-04-15, 01:39:04,VALID,1002.29,VALID,0,VALID,94.6744,VALID,0,VALID,23.9937,VALID,345,VALID,0.186328,
2009-04-15, 01:40:04,VALID,1002.29,VALID,0,VALID,94.6668,VALID,0.100563,VALID,24.0345,VALID,345,VALID,0.071875,
2009-04-15, 01:41:04,VALID,1002.22,VALID,0,VALID,94.6973,VALID,0,VALID,24.015,VALID,345,VALID,0,
2009-04-15, 01:42:04,VALID,1002.23,VALID,0,VALID,94.7049,VALID,0,VALID,24.0132,VALID,345,VALID,0,
2009-04-15, 01:43:04,VALID,1002.21,VALID,0,VALID,94.7049,VALID,0.100563,VALID,24.0326,VALID,345,VALID,0.00273437,
2009-04-15, 01:44:04,VALID,1002.2,VALID,0,VALID,94.7202,VALID,0,VALID,24.0326,VALID,345,VALID,0.245703,
2009-04-15, 01:45:04,VALID,1002.18,VALID,0,VALID,94.7202,VALID,0,VALID,24.0539,VALID,345,VALID,0,
2009-04-15, 01:46:04,VALID,1002.15,VALID,0,VALID,94.7049,VALID,0.100563,VALID,24.0345,VALID,345,VALID,0.267188,
2009-04-15, 01:47:04,VALID,1002.14,VALID,0,VALID,94.7125,VALID,0,VALID,24.0132,VALID,345,VALID,0.214062,
2009-04-15, 01:48:04,VALID,1002.14,VALID,0,VALID,94.6897,VALID,0,VALID,23.9937,VALID,345,VALID,0,
2009-04-15, 01:49:04,VALID,1002.14,VALID,0,VALID,94.6973,VALID,0,VALID,24.015,VALID,345,VALID,0,
2009-04-15, 01:50:04,VALID,1002.1,VALID,0,VALID,94.7049,VALID,0,VALID,24.0132,VALID,345,VALID,0,
2009-04-15, 01:51:04,VALID,1002.05,VALID,0,VALID,94.7507,VALID,0.100563,VALID,24.0521,VALID,345,VALID,0.0167969,
2009-04-15, 01:52:04,VALID,1002.04,VALID,0,VALID,94.766,VALID,0.100563,VALID,24.1123,VALID,345,VALID,0.0015625,
2009-04-15, 01:53:04,VALID,1001.99,VALID,0,VALID,94.7736,VALID,0.100563,VALID,24.1123,VALID,345,VALID,0,
2009-04-15, 01:54:04,VALID,1001.99,VALID,0,VALID,94.7888,VALID,0.100563,VALID,24.091,VALID,345,VALID,0,
2009-04-15, 01:55:04,VALID,1001.97,VALID,0,VALID,94.7812,VALID,0.100563,VALID,24.1105,VALID,345,VALID,0,
2009-04-15, 01:56:04,VALID,1001.94,VALID,0,VALID,94.766,VALID,0,VALID,24.1318,VALID,345,VALID,0.282813,
2009-04-15, 01:57:04,VALID,1001.93,VALID,0,VALID,94.7583,VALID,0,VALID,24.1318,VALID,345,VALID,0.0886719,
2009-04-15, 01:58:04,VALID,1001.92,VALID,0,VALID,94.7583,VALID,0,VALID,24.1531,VALID,348,VALID,0.5875,
2009-04-15, 01:59:04,VALID,1001.9,VALID,0,VALID,94.7507,VALID,0,VALID,24.1123,VALID,356,VALID,0.628516,
2009-04-15, 02:00:04,VALID,1001.91,VALID,0,VALID,94.7507,VALID,0,VALID,24.1142,VALID,356,VALID,0.546094,
2009-04-15, 02:01:04,VALID,1001.89,VALID,0,VALID,94.7507,VALID,0,VALID,24.0929,VALID,356,VALID,0.372656,
2009-04-15, 02:02:04,VALID,1001.88,VALID,0,VALID,94.7354,VALID,0,VALID,24.0947,VALID,356,VALID,0.0105469,
2009-04-15, 02:03:04,VALID,1001.88,VALID,0,VALID,94.7354,VALID,0,VALID,24.0539,VALID,356,VALID,0,
2009-04-15, 02:04:04,VALID,1001.84,VALID,0,VALID,94.7431,VALID,0,VALID,24.0734,VALID,356,VALID,0,
2009-04-15, 02:05:04,VALID,1001.82,VALID,0,VALID,94.7507,VALID,0,VALID,24.0929,VALID,356,VALID,0,
2009-04-15, 02:06:04,VALID,1001.8,VALID,0,VALID,94.7583,VALID,0,VALID,24.1123,VALID,356,VALID,0,
2009-04-15, 02:07:04,VALID,1001.79,VALID,0,VALID,94.7812,VALID,0,VALID,24.1336,VALID,356,VALID,0,
2009-04-15, 02:08:04,VALID,1001.73,VALID,0,VALID,94.7736,VALID,0,VALID,24.1142,VALID,356,VALID,0.260156,
2009-04-15, 02:09:04,VALID,1001.74,VALID,0,VALID,94.766,VALID,0,VALID,24.0734,VALID,356,VALID,0.349609,
2009-04-15, 02:10:04,VALID,1001.73,VALID,0,VALID,94.766,VALID,0,VALID,24.0929,VALID,356,VALID,0.294922,
2009-04-15, 02:11:04,VALID,1001.75,VALID,0,VALID,94.7736,VALID,0.100563,VALID,24.091,VALID,356,VALID,0.258984,
2009-04-15, 02:12:04,VALID,1001.7,VALID,0,VALID,94.7736,VALID,0.100563,VALID,24.1318,VALID,356,VALID,0.378906,
2009-04-15, 02:13:04,VALID,1001.65,VALID,0,VALID,94.7812,VALID,0.100563,VALID,24.1105,VALID,356,VALID,0.451953,
2009-04-15, 02:14:04,VALID,1001.64,VALID,0,VALID,94.766,VALID,0.100563,VALID,24.091,VALID,356,VALID,0.0375,
2009-04-15, 02:15:04,VALID,1001.62,VALID,0,VALID,94.7736,VALID,0.100563,VALID,24.091,VALID,356,VALID,0.00429688,
2009-04-15, 02:16:04,VALID,1001.61,VALID,0,VALID,94.7888,VALID,0,VALID,24.091,VALID,309,VALID,0.436719,
2009-04-15, 02:17:04,VALID,1001.61,VALID,0,VALID,94.7888,VALID,0,VALID,24.091,VALID,309,VALID,0.296875,
2009-04-15, 02:18:04,VALID,1001.6,VALID,0,VALID,94.8041,VALID,0,VALID,24.091,VALID,309,VALID,0.379687,
2009-04-15, 02:19:04,VALID,1001.64,VALID,0,VALID,94.8041,VALID,0,VALID,24.091,VALID,309,VALID,0.532812,
2009-04-15, 02:20:04,VALID,1001.64,VALID,0,VALID,94.7965,VALID,0.100563,VALID,24.0734,VALID,309,VALID,0.498828,
2009-04-15, 02:21:04,VALID,1001.66,VALID,0,VALID,94.766,VALID,0.100563,VALID,24.0132,VALID,310,VALID,0.397656,
2009-04-15, 02:22:04,VALID,1001.68,VALID,0,VALID,94.7583,VALID,0.100563,VALID,24.0326,VALID,310,VALID,0.373828,
2009-04-15, 02:23:04,VALID,1001.68,VALID,0,VALID,94.766,VALID,0.100563,VALID,24.0539,VALID,310,VALID,0.191406,
2009-04-15, 02:24:04,VALID,1001.68,VALID,0,VALID,94.7736,VALID,0,VALID,24.0539,VALID,310,VALID,0.139453,
2009-04-15, 02:25:04,VALID,1001.7,VALID,0,VALID,94.7736,VALID,0.100563,VALID,24.0345,VALID,310,VALID,0,
2009-04-15, 02:26:04,VALID,1001.74,VALID,0,VALID,94.7888,VALID,0,VALID,24.015,VALID,310,VALID,0,
2009-04-15, 02:27:04,VALID,1001.76,VALID,0,VALID,94.7812,VALID,0,VALID,24.0345,VALID,310,VALID,0,
2009-04-15, 02:28:04,VALID,1001.79,VALID,0,VALID,94.7812,VALID,0,VALID,24.0132,VALID,310,VALID,0,
2009-04-15, 02:29:04,VALID,1001.77,VALID,0,VALID,94.8041,VALID,0,VALID,24.0132,VALID,310,VALID,0,
2009-04-15, 02:30:04,VALID,1001.81,VALID,0,VALID,94.8194,VALID,0,VALID,24.0326,VALID,310,VALID,0,
2009-04-15, 02:31:04,VALID,1001.82,VALID,0,VALID,94.7965,VALID,0,VALID,24.0521,VALID,310,VALID,0,
2009-04-15, 02:32:04,VALID,1001.86,VALID,0,VALID,94.827,VALID,0.100563,VALID,24.0521,VALID,310,VALID,0.207031,
2009-04-15, 02:33:04,VALID,1001.87,VALID,0,VALID,94.827,VALID,0.100563,VALID,24.0929,VALID,310,VALID,0,
2009-04-15, 02:34:04,VALID,1001.89,VALID,0,VALID,94.8422,VALID,0,VALID,24.091,VALID,310,VALID,0,
2009-04-15, 02:35:04,VALID,1001.94,VALID,0,VALID,94.8651,VALID,0,VALID,24.1318,VALID,310,VALID,0.177734,
2009-04-15, 02:36:04,VALID,1001.94,VALID,0,VALID,94.8728,VALID,0,VALID,24.13,VALID,310,VALID,0,
2009-04-15, 02:37:04,VALID,1001.98,VALID,0,VALID,94.8728,VALID,0,VALID,24.13,VALID,310,VALID,0,
2009-04-15, 02:38:04,VALID,1001.94,VALID,0,VALID,94.8575,VALID,0,VALID,24.1513,VALID,310,VALID,0,
2009-04-15, 02:39:04,VALID,1001.97,VALID,0,VALID,94.8728,VALID,0,VALID,24.1707,VALID,310,VALID,0,
2009-04-15, 02:40:04,VALID,1001.96,VALID,0,VALID,94.888,VALID,0.100563,VALID,24.1902,VALID,310,VALID,0.0046875,
2009-04-15, 02:41:04,VALID,1001.97,VALID,0,VALID,94.888,VALID,0,VALID,24.2486,VALID,310,VALID,0.344141,
2009-04-15, 02:42:04,VALID,1001.96,VALID,0,VALID,94.9109,VALID,0.100563,VALID,24.2681,VALID,310,VALID,0.224219,
2009-04-15, 02:43:04,VALID,1001.93,VALID,0,VALID,94.9109,VALID,0.100563,VALID,24.2468,VALID,310,VALID,0.133203,
2009-04-15, 02:44:04,VALID,1001.91,VALID,0,VALID,94.888,VALID,0,VALID,24.2078,VALID,310,VALID,0.246875,
2009-04-15, 02:45:04,VALID,1001.89,VALID,0,VALID,94.8651,VALID,0,VALID,24.2078,VALID,310,VALID,0.00273437,
2009-04-15, 02:46:04,VALID,1001.86,VALID,0,VALID,94.8499,VALID,0.100563,VALID,24.2078,VALID,310,VALID,0.246094,
2009-04-15, 02:47:04,VALID,1001.85,VALID,0,VALID,94.8499,VALID,0,VALID,24.1902,VALID,310,VALID,0.435156,
2009-04-15, 02:48:04,VALID,1001.8,VALID,0,VALID,94.8422,VALID,0.100563,VALID,24.1494,VALID,310,VALID,0.358594,
2009-04-15, 02:49:04,VALID,1001.78,VALID,0,VALID,94.8117,VALID,0,VALID,24.1105,VALID,310,VALID,0.371875,
2009-04-15, 02:50:04,VALID,1001.78,VALID,0,VALID,94.8041,VALID,0,VALID,24.0929,VALID,310,VALID,0.3625,
2009-04-15, 02:51:04,VALID,1001.77,VALID,0,VALID,94.7965,VALID,0,VALID,24.0716,VALID,310,VALID,0.354297,
2009-04-15, 02:52:04,VALID,1001.77,VALID,0,VALID,94.7812,VALID,0,VALID,24.091,VALID,310,VALID,0.416406,
2009-04-15, 02:53:04,VALID,1001.76,VALID,0,VALID,94.8194,VALID,0,VALID,24.1318,VALID,310,VALID,0.279687,
2009-04-15, 02:54:04,VALID,1001.76,VALID,0,VALID,94.8041,VALID,0,VALID,24.0716,VALID,310,VALID,0.30625,
2009-04-15, 02:55:04,VALID,1001.75,VALID,0,VALID,94.827,VALID,0,VALID,24.1123,VALID,310,VALID,0.451562,
2009-04-15, 02:56:04,VALID,1001.73,VALID,0,VALID,94.8346,VALID,0,VALID,24.1318,VALID,310,VALID,0.535156,
2009-04-15, 02:57:04,VALID,1001.75,VALID,0,VALID,94.8728,VALID,0,VALID,24.1513,VALID,310,VALID,0.165625,
2009-04-15, 02:58:04,VALID,1001.71,VALID,0,VALID,94.888,VALID,0,VALID,24.1513,VALID,310,VALID,0,
2009-04-15, 02:59:04,VALID,1001.73,VALID,0,VALID,94.8651,VALID,0,VALID,24.13,VALID,310,VALID,0.220703,
2009-04-15, 03:00:04,VALID,1001.69,VALID,0,VALID,94.8499,VALID,0,VALID,24.13,VALID,310,VALID,0,
2009-04-15, 03:01:04,VALID,1001.7,VALID,0,VALID,94.8804,VALID,0,VALID,24.1726,VALID,310,VALID,0.00078125,
2009-04-15, 03:02:04,VALID,1001.7,VALID,0,VALID,94.8651,VALID,0.100563,VALID,24.1707,VALID,310,VALID,0.273438,
2009-04-15, 03:03:04,VALID,1001.67,VALID,0,VALID,94.8804,VALID,0.100563,VALID,24.13,VALID,310,VALID,0.378906,
2009-04-15, 03:04:04,VALID,1001.69,VALID,0,VALID,94.8728,VALID,0.100563,VALID,24.1494,VALID,310,VALID,0.394141,
2009-04-15, 03:05:04,VALID,1001.67,VALID,0,VALID,94.888,VALID,0,VALID,24.1689,VALID,343,VALID,0.61875,
2009-04-15, 03:06:04,VALID,1001.63,VALID,0,VALID,94.9109,VALID,0,VALID,24.2078,VALID,344,VALID,0.632422,
2009-04-15, 03:07:04,VALID,1001.64,VALID,0,VALID,94.9109,VALID,0.100563,VALID,24.2857,VALID,343,VALID,0.703906,
2009-04-15, 03:08:04,VALID,1001.63,VALID,0,VALID,94.949,VALID,0.100563,VALID,24.3052,VALID,356,VALID,0.855859,
2009-04-15, 03:09:04,VALID,1001.62,VALID,0,VALID,94.949,VALID,0,VALID,24.3441,VALID,338,VALID,0.654297,
2009-04-15, 03:10:04,VALID,1001.62,VALID,0,VALID,94.9643,VALID,0.100563,VALID,24.4043,VALID,345,VALID,0.491797,
2009-04-15, 03:11:04,VALID,1001.62,VALID,0,VALID,94.9719,VALID,0,VALID,24.4433,VALID,295,VALID,0.5625,
2009-04-15, 03:12:04,VALID,1001.61,VALID,0,VALID,94.949,VALID,0,VALID,24.4628,VALID,351,VALID,0.815625,
2009-04-15, 03:13:04,VALID,1001.63,VALID,0,VALID,94.949,VALID,0,VALID,24.4628,VALID,356,VALID,0.941406,
2009-04-15, 03:14:04,VALID,1001.62,VALID,0,VALID,94.949,VALID,0.100563,VALID,24.5406,VALID,353,VALID,1.0832,
2009-04-15, 03:15:04,VALID,1001.63,VALID,0,VALID,94.9262,VALID,0,VALID,24.5406,VALID,356,VALID,0.675,
2009-04-15, 03:16:04,VALID,1001.65,VALID,0,VALID,94.9185,VALID,0,VALID,24.4998,VALID,355,VALID,0.432813,
2009-04-15, 03:17:04,VALID,1001.63,VALID,0,VALID,94.888,VALID,0,VALID,24.5406,VALID,360,VALID,0.602344,
2009-04-15, 03:18:04,VALID,1001.62,VALID,0,VALID,94.8728,VALID,0,VALID,24.4804,VALID,360,VALID,0.564453,
2009-04-15, 03:19:04,VALID,1001.61,VALID,0,VALID,94.8499,VALID,0,VALID,24.4804,VALID,360,VALID,0.578516,
2009-04-15, 03:20:04,VALID,1001.65,VALID,0,VALID,94.8422,VALID,0,VALID,24.4998,VALID,360,VALID,0.722266,
2009-04-15, 03:21:04,VALID,1001.6,VALID,0,VALID,94.827,VALID,0,VALID,24.5212,VALID,360,VALID,0.762891,
2009-04-15, 03:22:04,VALID,1001.58,VALID,0,VALID,94.7888,VALID,0,VALID,24.5406,VALID,360,VALID,0.874609,
2009-04-15, 03:23:04,VALID,1001.53,VALID,0,VALID,94.8117,VALID,0,VALID,24.5212,VALID,341,VALID,0.398438,
2009-04-15, 03:24:04,VALID,1001.5,VALID,0,VALID,94.7812,VALID,0,VALID,24.5406,VALID,341,VALID,0.178906,
2009-04-15, 03:25:04,VALID,1001.51,VALID,0,VALID,94.7888,VALID,0.100563,VALID,24.5193,VALID,341,VALID,0,
2009-04-15, 03:26:04,VALID,1001.5,VALID,0,VALID,94.7812,VALID,0,VALID,24.5193,VALID,307,VALID,0.621094,
2009-04-15, 03:27:04,VALID,1001.49,VALID,0,VALID,94.7888,VALID,0,VALID,24.5796,VALID,298,VALID,0.132422,
2009-04-15, 03:28:04,VALID,1001.47,VALID,0,VALID,94.7965,VALID,0,VALID,24.599,VALID,298,VALID,0,
2009-04-15, 03:29:04,VALID,1001.48,VALID,0,VALID,94.7888,VALID,0,VALID,24.6185,VALID,298,VALID,0.375781,
2009-04-15, 03:30:04,VALID,1001.52,VALID,0,VALID,94.766,VALID,0,VALID,24.638,VALID,298,VALID,0.183594,
2009-04-15, 03:31:04,VALID,1001.53,VALID,0,VALID,94.7583,VALID,0,VALID,24.638,VALID,303,VALID,0.290625,
2009-04-15, 03:32:04,VALID,1001.55,VALID,0,VALID,94.7583,VALID,0,VALID,24.6769,VALID,340,VALID,0.406641,
2009-04-15, 03:33:04,VALID,1001.55,VALID,0,VALID,94.7431,VALID,0,VALID,24.6556,VALID,355,VALID,0.778125,
2009-04-15, 03:34:04,VALID,1001.59,VALID,0,VALID,94.7278,VALID,0,VALID,24.7159,VALID,353,VALID,0.771484,
2009-04-15, 03:35:04,VALID,1001.57,VALID,0,VALID,94.7431,VALID,0,VALID,24.7937,VALID,349,VALID,1.12812,
2009-04-15, 03:36:04,VALID,1001.56,VALID,0,VALID,94.7431,VALID,0,VALID,24.8522,VALID,352,VALID,1.2668,
2009-04-15, 03:37:04,VALID,1001.57,VALID,0,VALID,94.6897,VALID,0,VALID,24.9087,VALID,352,VALID,1.02461,
2009-04-15, 03:38:04,VALID,1001.56,VALID,0,VALID,94.6591,VALID,0,VALID,24.9885,VALID,359,VALID,1.13398,
2009-04-15, 03:39:04,VALID,1001.57,VALID,0,VALID,94.5676,VALID,0,VALID,25.0469,VALID,353,VALID,0.935938,
2009-04-15, 03:40:04,VALID,1001.57,VALID,0,VALID,94.4608,VALID,0,VALID,25.0663,VALID,354,VALID,1.05703,
2009-04-15, 03:41:04,VALID,1001.54,VALID,0,VALID,94.2319,VALID,0,VALID,25.1248,VALID,351,VALID,0.266016,
2009-04-15, 03:42:04,VALID,1001.54,VALID,0,VALID,94.1328,VALID,0,VALID,25.1442,VALID,335,VALID,0.625781,
2009-04-15, 03:43:04,VALID,1001.49,VALID,0,VALID,94.0183,VALID,0,VALID,25.1637,VALID,360,VALID,1.24531,